RED-EYE 2 (MERLOT)

Last updated on Wed Nov 16 2022 00:02:06 GMT+0000 (Coordinated Universal Time)

1 45800U 98067RM 22318.25638727 .09844108 12415-4 56643-3 0 9991 2 45800 51.6226 245.8512 0003537 234.0003 126.0697 16.41843583137328

Satellite not in orbit